STARLINK-37146

Last updated on Sun Apr 12 2026 00:02:10 GMT+0000 (Coordinated Universal Time)

1 68555U 26070P 26101.50002315 -.01152256 41477-3 -26396-2 0 9998 2 68555 53.1582 220.2352 0000983 59.0619 128.4396 15.96704260 2657
UTC large
Height (km)
Speed (km/s)
/
Latitude / Longitude
Inclination (degrees)
Orbital Period (minutes)
Azimuth
Elevation
Range (km)
Doppler Factor

Next 0 passes for location: London (51.5072 / 0.1276)

Sorry there are no passes over London.
STARLINK-37146